DW1824 Weather Reports


Display with metric or nautical units.
time (UTC)temp
F
wind
direction
speed
MPH
gust
MPH
rain 1hr
in
rain 24hr
in
rain mn
in
humidity
%
barometer
mb
20260509090339 75 181 0.0 0.0 0.00 0.00 0.00 95 1010.0
20260509085328 75 181 0.0 0.0 0.00 0.00 0.00 95 1010.2
20260509084357 75 177 0.0 0.0 0.00 0.00 0.00 95 1010.2
20260509083327 75 177 0.0 0.0 0.00 0.00 0.00 95 1010.1
20260509082334 75 177 0.0 0.0 0.00 0.00 0.00 95 1010.2
20260509081341 75 150 0.0 3.0 0.00 0.00 0.00 95 1010.2
20260509080329 75 121 0.0 0.0 0.00 0.00 0.00 95 1010.1
20260509075339 75 119 0.0 3.0 0.00 0.00 0.00 95 1010.1
20260509074324 75 127 1.0 4.0 0.00 0.00 0.00 95 1009.9
20260509073334 75 138 3.0 5.0 0.00 0.00 0.00 95 1009.7
20260509072341 75 132 3.0 5.0 0.00 0.00 0.00 95 1009.8
20260509071329 75 122 3.0 7.0 0.00 0.00 0.00 94 1009.8
20260509070338 75 119 4.0 8.0 0.00 0.00 0.00 94 1009.6
20260509065329 75 133 4.0 6.0 0.00 0.00 0.00 94 1009.8
20260509064335 75 123 4.0 8.0 0.00 0.00 0.00 94 1009.9
20260509063324 75 127 3.0 5.0 0.00 0.00 0.00 93 1010.1
20260509062350 75 129 3.0 5.0 0.00 0.00 0.00 93 1010.3
20260509061337 75 127 2.0 3.0 0.00 0.00 0.00 93 1010.4
20260509060323 75 133 3.0 5.0 0.00 0.00 0.00 92 1010.6
20260509055330 75 131 3.0 4.0 0.00 0.00 0.00 92 1010.5
20260509054342 75 126 3.0 6.0 0.00 0.00 0.00 92 1010.5
20260509053329 75 129 2.0 3.0 0.00 0.00 0.00 92 1010.6
20260509052336 75 129 2.0 3.0 0.00 0.00 0.00 92 1010.6
20260509051343 75 131 1.0 2.0 0.00 0.00 0.00 92 1010.7
20260509050330 75 151 0.0 0.0 0.00 0.00 0.00 92 1010.6
20260509045329 75 95 0.0 0.0 0.00 0.00 0.00 92 1010.5
20260509044337 75 81 0.0 0.0 0.00 0.00 0.00 91 1010.5
20260509043325 75 52 0.0 0.0 0.00 0.00 0.00 91 1010.5
20260509042337 75 115 0.0 0.0 0.00 0.00 0.00 91 1010.5
20260509041343 75 113 0.0 3.0 0.00 0.00 0.00 91 1010.5
20260509040331 75 128 3.0 6.0 0.00 0.00 0.00 91 1010.4
20260509035336 75 102 2.0 4.0 0.00 0.00 0.00 91 1010.4
20260509034403 75 125 3.0 6.0 0.00 0.00 0.00 91 1010.4
20260509033324 74 144 2.0 4.0 0.00 0.00 0.00 91 1010.3
20260509032352 74 129 0.0 2.0 0.00 0.00 0.00 91 1010.2
20260509031339 74 28 0.0 2.0 0.00 0.00 0.00 91 1010.0
20260509030332 74 54 0.0 0.0 0.00 0.00 0.00 91 1010.1
20260509025340 74 54 0.0 0.0 0.00 0.00 0.00 91 1010.0
20260509024325 74 54 0.0 0.0 0.00 0.00 0.00 90 1009.9
20260509023333 74 54 0.0 0.0 0.00 0.00 0.00 90 1009.9
20260509022341 74 54 0.0 0.0 0.00 0.00 0.00 90 1010.0
20260509021330 74 102 0.0 0.0 0.00 0.00 0.00 90 1009.7
20260509020341 74 131 0.0 0.0 0.00 0.00 0.00 90 1009.6
20260509015352 74 131 0.0 0.0 0.00 0.00 0.00 90 1009.4
20260509014324 74 128 0.0 3.0 0.00 0.00 0.00 90 1009.2
20260509013335 74 82 0.0 1.0 0.00 0.00 0.00 89 1009.2
20260509012344 75 82 0.0 1.0 0.00 0.00 0.00 89 1009.2
20260509011332 75 27 0.0 0.0 0.00 0.00 0.00 89 1009.2
20260509010340 75 107 0.0 1.0 0.00 0.00 0.00 89 1009.4
20260509005331 75 111 0.0 3.0 0.00 0.00 0.00 88 1009.3
20260509004339 75 92 1.0 2.0 0.00 0.00 0.00 88 1009.1
20260509003330 75 140 1.0 5.0 0.00 0.00 0.00 88 1009.1
20260509002336 76 111 0.0 1.0 0.00 0.00 0.00 88 1009.0
20260509001403 76 119 0.0 2.0 0.00 0.00 0.00 88 1009.0
20260509000330 76 102 1.0 3.0 0.00 0.00 0.00 88 1009.1
20260508235337 76 108 0.0 2.0 0.00 0.00 0.00 88 1009.2
20260508234329 76 77 0.0 2.0 0.00 0.00 0.00 88 1009.2
20260508233338 76 95 0.0 0.0 0.00 0.00 0.00 87 1009.2
20260508232325 76 84 0.0 3.0 0.00 0.00 0.00 87 1009.1
20260508231353 77 111 1.0 3.0 0.00 0.00 0.00 87 1009.2
20260508230339 77 115 0.0 0.0 0.00 0.00 0.00 87 1009.2
20260508225325 77 111 0.0 3.0 0.00 0.00 0.00 87 1009.2
20260508224332 77 125 2.0 3.0 0.00 0.00 0.00 87 1009.3
20260508223327 77 98 0.0 2.0 0.00 0.00 0.00 86 1009.3
20260508222336 77 115 0.0 1.0 0.00 0.00 0.00 86 1009.1
20260508221343 77 115 0.0 3.0 0.00 0.00 0.00 86 1009.3
20260508220332 77 38 0.0 3.0 0.00 0.00 0.00 86 1009.4
20260508215338 77 115 1.0 7.0 0.00 0.00 0.00 85 1009.4
20260508214326 77 134 1.0 6.0 0.00 0.00 0.00 86 1009.4
20260508213334 77 143 0.0 3.0 0.00 0.00 0.00 86 1009.5
20260508212326 77 48 0.0 2.0 0.00 0.00 0.00 85 1009.5
20260508211334 77 102 1.0 4.0 0.00 0.00 0.00 85 1009.6
20260508210324 77 130 3.0 6.0 0.00 0.00 0.00 85 1010.1
20260508205332 77 143 2.0 5.0 0.00 0.00 0.00 85 1010.2
20260508204340 77 121 1.0 4.0 0.00 0.00 0.00 84 1010.3
20260508203327 77 125 2.0 3.0 0.00 0.00 0.00 84 1010.3
20260508202339 77 115 1.0 5.0 0.00 0.00 0.00 83 1010.4
20260508201326 77 133 2.0 4.0 0.00 0.00 0.00 83 1010.5
20260508200335 77 98 0.0 5.0 0.00 0.00 0.00 84 1010.6
20260508195342 76 104 3.0 4.0 0.00 0.00 0.00 84 1010.4
20260508194351 76 124 3.0 6.0 0.00 0.00 0.00 83 1010.9
20260508193337 75 102 1.0 3.0 0.00 0.00 0.00 84 1010.9
20260508192328 75 136 1.0 3.0 0.00 0.00 0.00 84 1011.1
20260508191337 75 115 1.0 3.0 0.00 0.00 0.00 84 1011.0
20260508190326 75 58 0.0 0.0 0.00 0.00 0.00 85 1011.0
20260508185335 74 19 0.0 2.0 0.00 0.00 0.00 85 1011.7
20260508184402 74 54 0.0 0.0 0.00 0.00 0.00 84 1011.7
20260508183326 74 54 0.0 0.0 0.00 0.00 0.00 84 1011.7
20260508182334 74 45 0.0 1.0 0.00 0.00 0.00 84 1011.7
20260508181324 74 140 1.0 2.0 0.00 0.00 0.00 85 1011.6
20260508180354 73 119 1.0 4.0 0.00 0.00 0.00 85 1011.6
20260508175340 73 44 0.0 5.0 0.00 0.00 0.00 85 1011.7
20260508174326 72 69 1.0 3.0 0.00 0.00 0.00 85 1011.9
20260508173352 72 112 0.0 2.0 0.00 0.00 0.00 86 1012.1
20260508172340 72 65 0.0 1.0 0.00 0.00 0.00 86 1012.3
20260508171327 72 129 1.0 2.0 0.00 0.00 0.00 85 1012.6
20260508170326 72 82 1.0 4.0 0.00 0.00 0.00 86 1012.7
20260508165354 71 340 0.0 5.0 0.00 0.00 0.00 86 1012.8
20260508164400 71 34 0.0 3.0 0.00 0.00 0.00 87 1012.8
20260508162404 70 48 0.0 2.0 0.00 0.00 0.00 87 1013.1
20260508161330 70 31 0.0 2.0 0.00 0.00 0.00 87 1013.1
20260508160358 70 7 1.0 3.0 0.00 0.00 0.00 87 1013.0
20260508155345 69 69 1.0 6.0 0.00 0.00 0.00 87 1012.9
20260508154351 69 66 1.0 10.0 0.00 0.00 0.00 87 1012.9
20260508153339 69 65 1.0 9.0 0.00 0.00 0.00 87 1013.1
20260508152328 69 13 2.0 9.0 0.00 0.00 0.00 87 1013.2
20260508151336 69 359 2.0 9.0 0.00 0.00 0.00 88 1013.2
20260508150341 69 33 1.0 6.0 0.00 0.00 0.00 88 1013.3
20260508145330 69 360 2.0 6.0 0.00 0.00 0.00 88 1013.5
20260508144335 69 2 2.0 8.0 0.00 0.00 0.00 87 1013.5
20260508143342 69 11 2.0 5.0 0.00 0.00 0.00 88 1013.5
20260508142334 69 34 1.0 8.0 0.00 0.00 0.00 88 1013.4
20260508141341 69 358 3.0 6.0 0.00 0.00 0.00 88 1013.3
20260508140327 69 9 2.0 4.0 0.00 0.00 0.00 88 1013.6
20260508135334 69 12 0.0 6.0 0.00 0.00 0.00 88 1013.5
20260508134341 69 5 1.0 5.0 0.00 0.00 0.00 88 1013.4
20260508133328 68 318 0.0 5.0 0.00 0.00 0.00 88 1013.5
20260508132339 68 336 0.0 3.0 0.00 0.00 0.00 88 1013.6
20260508131328 68 335 0.0 4.0 0.00 0.00 0.00 88 1013.4
20260508130333 68 356 1.0 4.0 0.00 0.00 0.00 88 1013.1
20260508125340 68 340 1.0 4.0 0.00 0.00 0.00 88 1013.6
20260508124329 67 321 1.0 4.0 0.00 0.00 0.00 88 1013.8
20260508123334 67 357 0.0 0.0 0.00 0.00 0.00 88 1013.6
20260508122325 67 356 0.0 2.0 0.00 0.00 0.00 88 1013.3
20260508121332 67 12 1.0 2.0 0.00 0.00 0.00 88 1013.4
20260508120339 67 43 0.0 3.0 0.00 0.00 0.00 87 1013.4
20260508115327 67 358 0.0 4.0 0.00 0.00 0.00 87 1013.5
20260508114334 67 36 0.0 2.0 0.00 0.00 0.00 87 1013.6
20260508113343 67 14 0.0 3.0 0.00 0.00 0.00 86 1014.0
20260508112332 67 308 1.0 3.0 0.00 0.00 0.00 85 1014.3
20260508111404 68 300 2.0 4.0 0.00 0.00 0.00 84 1014.1
20260508110350 68 331 0.0 5.0 0.00 0.00 0.00 83 1013.5
20260508105335 68 314 1.0 5.0 0.00 0.00 0.00 84 1013.6
20260508104343 68 283 3.0 8.0 0.00 0.00 0.00 84 1013.4
20260508103328 68 76 0.0 0.0 0.00 0.00 0.00 84 1012.8
20260508102335 68 76 0.0 1.0 0.00 0.00 0.00 83 1013.1
20260508101344 68 77 0.0 3.0 0.00 0.00 0.00 83 1012.9
20260508100333 68 69 0.0 1.0 0.00 0.00 0.00 83 1012.6
20260508095324 67 52 0.0 3.0 0.00 0.00 0.00 84 1013.1
20260508094331 67 88 0.0 8.0 0.00 0.00 0.00 84 1013.4
20260508093336 67 298 1.0 4.0 0.00 0.00 0.00 84 1014.0
20260508092402 67 350 3.0 6.0 0.00 0.00 0.00 84 1013.7
20260508091327 67 296 2.0 8.0 0.00 0.00 0.00 84 1013.5